User: anonymous   Login
Location: Fensholt
(55.9856°N, 10.0808°E)
Time: 00:19:48
(UTC+00:00)
Language:

Cosmos 1400 Rocket - Orbit

View from above orbital plane
View from above orbital plane
View from above satellite
View from above satellite

Ground track
Ground track

The orbit data is extracted from the following two-line orbital elements,

1 13403U 82079B   21021.55285814 -.00000016  00000-0 -25834-5 0  9997
2 13403  81.1669 202.9913 0031522 263.0613  96.7024 15.07298046 94467
Epoch (UTC): 21 January 2021 13:16:06
Eccentricity: 0.0031522
inclination: 81.1669°
perigee height: 522 km
apogee height: 566 km
right ascension of ascending node: 202.9913°
argument of perigee: 263.0613°
revolutions per day: 15.07298046
mean anomaly at epoch: 96.7024°
orbit number at epoch: 9446

The dashed part of the orbit path shows where the satellite is in the earth's shadow,  

DLR